sat.trackr.live / text

‹ back to catalog

STARLINK-32780

NORAD 62746 · 2025-014M

PAYLOAD ACTIVE UNKNOWN

§ Identity

Operator
Country
US
Launch date
2025-01-21
Launch site
AFETR
Launch vehicle
Mass (kg)
RCS (m²)

Purposes: comms

External: N2YO · Heavens-Above · Gunter

§ Orbital elements

Epoch: 2026-05-25T04:40:58.399968Z

Period
94.27 min
Inclination
43.0011°
Eccentricity
0.0001133
Mean motion
15.27596805 rev/d
Perigee alt
482.2 km
Apogee alt
483.8 km
Semi-major
6,861.1 km
B*
6.6414e-4
RAAN
82.6949°
Arg perigee
272.2061°
Mean anomaly
87.8660°
Rev number
7,495

§ Raw data

STARLINK-327801 62746U 25014M   26145.19512037  .00018068  00000+0  66414-3 0  99992 62746  43.0011  82.6949 0001133 272.2061  87.8660 15.27596805 74950

JSON: /api/v1/satellites/62746 · /tle

For live sub-satellite position, see the globe view (requires WebGL).

§ Visibility from observer

Set your observer location to see the next 7 days of passes ≥ 10°. The values pass through the URL so the page stays shareable.

No JS? Fill the form by hand. The geolocation button needs JavaScript.